Total_Precipitation_Accumulation
0.00 0.00 0.00 0.00 0.00 0.00 0.00 0.00 0.00 0.00 0.00 0.00 0.00 0.00 0.00 0.00 0.00 0.00 0.00 0.00 0.00 0.00 0.00 0.00 0.00 0.00 0.00 0.00 0.00 0.00 0.00 0.00 0.00 0.00 0.00 0.00 0.00 0.00 0.00 0.00 0.00 0.00 0.00 0.00 0.00 0.00 0.00 0.00 0.00 0.00 0.00 0.00 0.02 0.02 0.00 0.00 0.00 0.00 0.00 0.01 0.01 0.02 0.04 0.10 0.10 0.10 0.12 0.12 0.13 0.13 0.11 0.15 0.08 0.08 0.15 0.11 0.09 0.09 0.14 0.14 0.14 0.12 0.15 0.13 0.13 0.14
0.00 0.00 0.00 0.00 0.00 0.00 0.00 0.00 0.00 0.00 0.00 0.00 0.00 0.00 0.00 0.00 0.00 0.00 0.00 0.00 0.00 0.00 0.00 0.00 0.00 0.00 0.00 0.00 0.00 0.00 0.00 0.00 0.00 0.00 0.00 0.00 0.00 0.00 0.00 0.00 0.00 0.00 0.00 0.00 0.00 0.00 0.00 0.00 0.00 0.00 0.00 0.00 0.00 0.00 0.00 0.00 0.00 0.00 0.01 0.01 0.01 0.03 0.05 0.06 0.06 0.07 0.11 0.09 0.14 0.14 0.15 0.18 0.20 0.20 0.24 0.16 0.13 0.13 0.14 0.13 0.13 0.09 0.12 0.13 0.13 0.13
0.00 0.00 0.00 0.00 0.00 0.00 0.00 0.00 0.00 0.00 0.00 0.00 0.00 0.00 0.00 0.00 0.00 0.00 0.00 0.00 0.00 0.00 0.00 0.00 0.00 0.00 0.00 0.00 0.00 0.00 0.00 0.00 0.00 0.00 0.00 0.00 0.00 0.00 0.00 0.00 0.00 0.00 0.00 0.00 0.00 0.00 0.00 0.00 0.00 0.00 0.00 0.00 0.00 0.00 0.02 0.01 0.01 0.01 0.01 0.02 0.02 0.02 0.03 0.03 0.03 0.07 0.06 0.06 0.07 0.07 0.15 0.09 0.15 0.15 0.09 0.16 0.23 0.23 0.16 0.19 0.19 0.15 0.18 0.17 0.17 0.11
0.00 0.00 0.00 0.00 0.00 0.00 0.00 0.00 0.00 0.00 0.00 0.00 0.00 0.00 0.00 0.00 0.00 0.00 0.00 0.00 0.00 0.00 0.00 0.00 0.00 0.00 0.00 0.00 0.00 0.00 0.00 0.00 0.00 0.00 0.00 0.00 0.00 0.00 0.00 0.00 0.00 0.00 0.00 0.00 0.00 0.00 0.00 0.00 0.00 0.00 0.00 0.00 0.01 0.01 0.03 0.03 0.03 0.01 0.02 0.02 0.02 0.06 0.06 0.06 0.06 0.03 0.04 0.04 0.05 0.05 0.04 0.06 0.06 0.06 0.07 0.10 0.12 0.12 0.13 0.15 0.15 0.15 0.17 0.14 0.14 0.16
0.01 0.01 0.00 0.00 0.00 0.00 0.00 0.00 0.00 0.00 0.00 0.00 0.00 0.00 0.00 0.00 0.00 0.00 0.00 0.00 0.00 0.00 0.00 0.00 0.00 0.00 0.00 0.00 0.00 0.00 0.00 0.00 0.00 0.00 0.00 0.00 0.00 0.00 0.00 0.00 0.00 0.00 0.00 0.00 0.00 0.00 0.00 0.00 0.00 0.00 0.03 0.03 0.03 0.03 0.05 0.04 0.04 0.04 0.06 0.06 0.06 0.06 0.05 0.05 0.05 0.08 0.07 0.06 0.11 0.11 0.10 0.07 0.07 0.07 0.07 0.05 0.07 0.07 0.05 0.08 0.08 0.11 0.11 0.14 0.14 0.11
0.02 0.01 0.00 0.00 0.00 0.00 0.00 0.00 0.00 0.00 0.00 0.00 0.01 0.01 0.01 0.01 0.00 0.00 0.00 0.00 0.00 0.00 0.00 0.00 0.00 0.00 0.00 0.00 0.00 0.00 0.00 0.00 0.00 0.00 0.00 0.00 0.00 0.00 0.00 0.00 0.00 0.00 0.00 0.00 0.00 0.00 0.00 0.00 0.00 0.01 0.04 0.06 0.06 0.06 0.02 0.02 0.02 0.04 0.02 0.03 0.03 0.05 0.08 0.08 0.08 0.06 0.07 0.10 0.04 0.04 0.05 0.02 0.03 0.03 0.04 0.03 0.04 0.04 0.02 0.04 0.04 0.04 0.04 0.06 0.06 0.04
0.02 0.01 0.00 0.00 0.00 0.00 0.00 0.00 0.00 0.00 0.00 0.00 0.04 0.04 0.01 0.00 0.00 0.00 0.00 0.00 0.00 0.00 0.00 0.00 0.00 0.00 0.00 0.00 0.00 0.00 0.00 0.00 0.00 0.00 0.00 0.00 0.00 0.00 0.00 0.00 0.00 0.00 0.00 0.00 0.00 0.00 0.00 0.00 0.00 0.00 0.00 0.02 0.02 0.02 0.04 0.03 0.03 0.02 0.08 0.08 0.08 0.08 0.04 0.05 0.05 0.01 0.01 0.02 0.00 0.00 0.01 0.00 0.00 0.00 0.01 0.01 0.03 0.03 0.03 0.02 0.02 0.03 0.03 0.02 0.02 0.01
0.00 0.00 0.00 0.00 0.00 0.00 0.00 0.03 0.04 0.04 0.07 0.07 0.00 0.00 0.00 0.00 0.00 0.00 0.00 0.00 0.00 0.00 0.00 0.00 0.00 0.00 0.00 0.00 0.00 0.00 0.00 0.00 0.00 0.00 0.00 0.00 0.00 0.00 0.00 0.00 0.00 0.00 0.00 0.00 0.00 0.01 0.01 0.04 0.04 0.03 0.04 0.05 0.05 0.05 0.00 0.00 0.00 0.00 0.00 0.00 0.00 0.00 0.00 0.00 0.00 0.00 0.00 0.00 0.00 0.00 0.00 0.01 0.01 0.01 0.01 0.02 0.02 0.02 0.02 0.03 0.03 0.03 0.02 0.04 0.04 0.04
0.00 0.00 0.00 0.00 0.00 0.01 0.02 0.15 0.06 0.06 0.01 0.00 0.00 0.00 0.00 0.00 0.00 0.00 0.00 0.00 0.00 0.00 0.00 0.00 0.00 0.00 0.00 0.00 0.00 0.00 0.00 0.00 0.00 0.00 0.00 0.00 0.00 0.00 0.00 0.00 0.00 0.00 0.00 0.01 0.01 0.01 0.02 0.03 0.03 0.04 0.04 0.00 0.00 0.00 0.00 0.00 0.00 0.00 0.00 0.00 0.00 0.00 0.00 0.00 0.00 0.00 0.00 0.00 0.00 0.00 0.00 0.00 0.01 0.01 0.02 0.03 0.03 0.03 0.03 0.03 0.03 0.04 0.03 0.02 0.02 0.02
0.01 0.01 0.02 0.06 0.06 0.16 0.17 0.03 0.00 0.00 0.00 0.00 0.00 0.00 0.00 0.00 0.00 0.00 0.00 0.00 0.00 0.00 0.00 0.00 0.00 0.00 0.00 0.00 0.00 0.00 0.00 0.00 0.00 0.00 0.00 0.00 0.00 0.00 0.00 0.00 0.00 0.01 0.01 0.02 0.02 0.03 0.03 0.00 0.00 0.00 0.00 0.00 0.00 0.00 0.00 0.00 0.00 0.00 0.00 0.00 0.00 0.00 0.00 0.00 0.00 0.00 0.00 0.00 0.00 0.00 0.00 0.00 0.01 0.01 0.02 0.03 0.04 0.04 0.05 0.04 0.04 0.03 0.05 0.04 0.04 0.06
0.01 0.01 0.17 0.27 0.27 0.24 0.11 0.00 0.00 0.00 0.00 0.00 0.00 0.00 0.00 0.00 0.00 0.00 0.00 0.00 0.00 0.00 0.00 0.00 0.00 0.00 0.00 0.00 0.00 0.00 0.00 0.00 0.00 0.00 0.00 0.00 0.00 0.00 0.00 0.02 0.02 0.02 0.02 0.00 0.00 0.00 0.00 0.00 0.00 0.00 0.00 0.00 0.00 0.00 0.00 0.00 0.00 0.00 0.00 0.00 0.00 0.00 0.00 0.00 0.00 0.00 0.00 0.00 0.00 0.00 0.00 0.00 0.01 0.01 0.01 0.03 0.04 0.04 0.06 0.05 0.05 0.04 0.04 0.04 0.04 0.06
0.05 0.42 0.35 0.24 0.24 0.10 0.02 0.00 0.00 0.00 0.00 0.00 0.00 0.00 0.00 0.00 0.00 0.00 0.00 0.00 0.00 0.00 0.00 0.00 0.00 0.00 0.00 0.00 0.00 0.00 0.00 0.00 0.00 0.00 0.00 0.00 0.01 0.01 0.02 0.00 0.00 0.00 0.00 0.00 0.00 0.00 0.00 0.00 0.00 0.00 0.00 0.00 0.00 0.00 0.00 0.00 0.00 0.00 0.00 0.00 0.00 0.00 0.00 0.00 0.00 0.00 0.00 0.00 0.01 0.01 0.01 0.01 0.04 0.04 0.03 0.06 0.04 0.04 0.05 0.06 0.06 0.06 0.08 0.05 0.05 0.08
0.25 0.29 0.12 0.03 0.03 0.00 0.00 0.00 0.00 0.00 0.00 0.00 0.00 0.00 0.00 0.00 0.00 0.00 0.00 0.00 0.00 0.00 0.00 0.01 0.01 0.00 0.00 0.00 0.00 0.00 0.00 0.00 0.00 0.00 0.00 0.02 0.02 0.02 0.01 0.00 0.00 0.00 0.00 0.00 0.00 0.00 0.00 0.00 0.00 0.00 0.00 0.00 0.00 0.00 0.00 0.00 0.00 0.00 0.00 0.00 0.00 0.00 0.00 0.01 0.01 0.01 0.01 0.01 0.03 0.03 0.03 0.04 0.12 0.12 0.07 0.11 0.11 0.11 0.07 0.12 0.12 0.11 0.13 0.09 0.09 0.10
0.43 0.12 0.01 0.01 0.01 0.00 0.00 0.00 0.00 0.00 0.00 0.00 0.00 0.00 0.00 0.00 0.00 0.00 0.00 0.00 0.00 0.00 0.01 0.01 0.01 0.01 0.01 0.00 0.00 0.00 0.00 0.00 0.01 0.01 0.02 0.00 0.00 0.00 0.00 0.00 0.00 0.00 0.00 0.00 0.00 0.00 0.00 0.00 0.00 0.00 0.00 0.00 0.00 0.00 0.00 0.00 0.00 0.00 0.00 0.00 0.00 0.00 0.00 0.01 0.01 0.01 0.01 0.02 0.09 0.09 0.09 0.11 0.13 0.13 0.12 0.14 0.14 0.14 0.15 0.12 0.12 0.13 0.09 0.14 0.14 0.13
0.29 0.02 0.01 0.01 0.01 0.00 0.00 0.00 0.00 0.00 0.00 0.00 0.00 0.00 0.00 0.00 0.00 0.00 0.01 0.02 0.02 0.01 0.03 0.02 0.02 0.01 0.00 0.00 0.00 0.00 0.00 0.01 0.01 0.01 0.01 0.00 0.00 0.00 0.00 0.00 0.00 0.00 0.00 0.00 0.00 0.00 0.00 0.00 0.00 0.00 0.00 0.00 0.00 0.00 0.00 0.00 0.00 0.00 0.00 0.00 0.00 0.00 0.00 0.00 0.00 0.00 0.06 0.09 0.10 0.10 0.11 0.13 0.11 0.11 0.13 0.10 0.10 0.10 0.11 0.11 0.11 0.10 0.12 0.10 0.10 0.08
0.05 0.02 0.03 0.02 0.02 0.00 0.00 0.00 0.00 0.00 0.00 0.00 0.00 0.00 0.00 0.00 0.02 0.02 0.03 0.05 0.05 0.03 0.11 0.06 0.06 0.04 0.00 0.00 0.00 0.00 0.00 0.00 0.00 0.00 0.00 0.00 0.00 0.00 0.00 0.00 0.00 0.00 0.00 0.00 0.00 0.00 0.00 0.00 0.00 0.00 0.00 0.00 0.00 0.00 0.00 0.00 0.00 0.00 0.00 0.00 0.00 0.00 0.05 0.06 0.06 0.06 0.06 0.06 0.04 0.04 0.05 0.05 0.05 0.05 0.06 0.05 0.07 0.07 0.11 0.08 0.08 0.11 0.08 0.12 0.12 0.11
0.01 0.02 0.01 0.01 0.01 0.00 0.00 0.00 0.00 0.00 0.00 0.00 0.00 0.00 0.00 0.01 0.07 0.07 0.09 0.11 0.11 0.11 0.07 0.06 0.06 0.07 0.04 0.00 0.00 0.00 0.00 0.01 0.00 0.00 0.00 0.00 0.00 0.00 0.00 0.00 0.00 0.01 0.00 0.00 0.00 0.00 0.00 0.00 0.00 0.00 0.00 0.00 0.00 0.00 0.00 0.00 0.00 0.00 0.00 0.03 0.03 0.04 0.05 0.05 0.05 0.05 0.02 0.03 0.03 0.03 0.04 0.04 0.03 0.03 0.04 0.05 0.03 0.03 0.05 0.03 0.03 0.04 0.02 0.04 0.04 0.06
0.02 0.00 0.00 0.00 0.00 0.00 0.00 0.00 0.00 0.00 0.00 0.00 0.01 0.01 0.01 0.02 0.10 0.10 0.14 0.15 0.15 0.10 0.07 0.04 0.04 0.07 0.05 0.02 0.00 0.00 0.00 0.01 0.01 0.01 0.01 0.03 0.00 0.00 0.00 0.00 0.00 0.01 0.00 0.00 0.00 0.00 0.00 0.00 0.00 0.00 0.00 0.00 0.00 0.00 0.00 0.00 0.00 0.00 0.00 0.04 0.04 0.04 0.01 0.01 0.01 0.01 0.01 0.02 0.03 0.03 0.02 0.03 0.02 0.02 0.02 0.02 0.01 0.01 0.02 0.01 0.01 0.02 0.01 0.02 0.02 0.02
0.02 0.00 0.00 0.00 0.00 0.00 0.00 0.00 0.00 0.00 0.00 0.03 0.05 0.05 0.07 0.06 0.11 0.11 0.10 0.08 0.08 0.08 0.05 0.06 0.06 0.05 0.04 0.02 0.00 0.00 0.00 0.00 0.02 0.02 0.03 0.03 0.00 0.00 0.00 0.00 0.00 0.01 0.00 0.00 0.00 0.00 0.00 0.00 0.00 0.00 0.00 0.00 0.00 0.00 0.00 0.02 0.02 0.03 0.04 0.00 0.00 0.01 0.00 0.00 0.00 0.01 0.00 0.01 0.01 0.01 0.01 0.01 0.01 0.01 0.01 0.02 0.01 0.01 0.01 0.03 0.03 0.03 0.02 0.04 0.04 0.03
0.00 0.00 0.00 0.00 0.00 0.00 0.00 0.00 0.00 0.00 0.02 0.12 0.23 0.23 0.20 0.11 0.08 0.08 0.06 0.04 0.04 0.06 0.06 0.11 0.11 0.08 0.05 0.05 0.00 0.00 0.00 0.01 0.05 0.05 0.07 0.03 0.00 0.00 0.00 0.01 0.01 0.01 0.00 0.00 0.00 0.00 0.00 0.00 0.00 0.00 0.00 0.00 0.00 0.00 0.00 0.00 0.00 0.00 0.00 0.00 0.00 0.00 0.00 0.00 0.00 0.00 0.00 0.00 0.01 0.01 0.00 0.01 0.01 0.01 0.01 0.01 0.03 0.03 0.03 0.04 0.04 0.04 0.04 0.04 0.04 0.05
0.00 0.00 0.00 0.00 0.00 0.00 0.01 0.01 0.01 0.01 0.03 0.23 0.33 0.33 0.17 0.10 0.05 0.05 0.04 0.02 0.02 0.05 0.09 0.11 0.11 0.08 0.04 0.03 0.01 0.01 0.00 0.02 0.08 0.08 0.10 0.06 0.00 0.00 0.00 0.00 0.00 0.00 0.00 0.00 0.00 0.00 0.00 0.00 0.00 0.00 0.00 0.00 0.00 0.00 0.00 0.00 0.00 0.00 0.00 0.00 0.00 0.00 0.00 0.00 0.00 0.00 0.00 0.00 0.00 0.00 0.00 0.00 0.01 0.01 0.01 0.01 0.03 0.03 0.03 0.04 0.04 0.05 0.04 0.04 0.04 0.04
0.00 0.00 0.00 0.00 0.00 0.00 0.05 0.05 0.06 0.06 0.11 0.39 0.34 0.34 0.19 0.11 0.14 0.14 0.08 0.08 0.08 0.08 0.11 0.09 0.09 0.05 0.02 0.02 0.00 0.00 0.00 0.04 0.07 0.07 0.08 0.06 0.01 0.01 0.00 0.00 0.00 0.00 0.00 0.00 0.00 0.00 0.00 0.00 0.00 0.00 0.00 0.00 0.00 0.00 0.00 0.00 0.00 0.00 0.00 0.00 0.00 0.00 0.00 0.00 0.00 0.00 0.00 0.00 0.00 0.00 0.00 0.00 0.00 0.00 0.00 0.02 0.01 0.01 0.02 0.02 0.02 0.02 0.04 0.04 0.04 0.04
0.00 0.00 0.00 0.00 0.00 0.02 0.19 0.21 0.20 0.20 0.27 0.08 0.10 0.10 0.10 0.15 0.22 0.22 0.16 0.13 0.13 0.12 0.11 0.08 0.08 0.04 0.01 0.02 0.01 0.01 0.01 0.02 0.04 0.04 0.10 0.04 0.00 0.00 0.00 0.00 0.00 0.00 0.00 0.00 0.00 0.00 0.00 0.00 0.00 0.00 0.00 0.00 0.00 0.00 0.00 0.00 0.00 0.00 0.00 0.00 0.00 0.00 0.00 0.00 0.00 0.00 0.00 0.00 0.00 0.00 0.00 0.00 0.01 0.01 0.01 0.01 0.01 0.01 0.01 0.02 0.02 0.02 0.03 0.02 0.02 0.03
0.00 0.01 0.01 0.03 0.03 0.07 0.36 0.34 0.21 0.21 0.06 0.02 0.04 0.04 0.08 0.19 0.17 0.17 0.15 0.14 0.14 0.06 0.06 0.04 0.04 0.03 0.01 0.01 0.02 0.02 0.00 0.00 0.01 0.01 0.02 0.02 0.00 0.00 0.00 0.00 0.00 0.01 0.00 0.00 0.00 0.00 0.00 0.00 0.00 0.00 0.00 0.00 0.00 0.00 0.00 0.00 0.00 0.00 0.00 0.00 0.00 0.00 0.00 0.00 0.00 0.00 0.00 0.00 0.00 0.00 0.01 0.01 0.01 0.01 0.02 0.02 0.03 0.03 0.05 0.03 0.03 0.06 0.06 0.08 0.08 0.07
0.03 0.08 0.13 0.15 0.15 0.28 0.04 0.04 0.02 0.02 0.01 0.01 0.03 0.03 0.05 0.13 0.05 0.05 0.04 0.05 0.05 0.03 0.04 0.08 0.08 0.05 0.01 0.01 0.01 0.01 0.00 0.00 0.00 0.00 0.01 0.05 0.01 0.01 0.00 0.00 0.00 0.00 0.00 0.00 0.00 0.00 0.00 0.00 0.00 0.00 0.00 0.00 0.00 0.00 0.00 0.00 0.00 0.00 0.00 0.00 0.00 0.00 0.00 0.00 0.00 0.00 0.00 0.00 0.00 0.00 0.01 0.02 0.02 0.02 0.03 0.03 0.04 0.04 0.06 0.07 0.07 0.07 0.08 0.05 0.05 0.07
0.08 0.10 0.12 0.09 0.09 0.06 0.00 0.00 0.00 0.00 0.00 0.02 0.05 0.05 0.05 0.04 0.05 0.05 0.03 0.02 0.02 0.03 0.06 0.08 0.08 0.05 0.01 0.01 0.00 0.00 0.00 0.00 0.00 0.00 0.03 0.09 0.01 0.01 0.00 0.00 0.00 0.00 0.01 0.00 0.00 0.00 0.00 0.00 0.00 0.00 0.00 0.00 0.00 0.00 0.00 0.00 0.00 0.00 0.00 0.00 0.00 0.00 0.00 0.00 0.00 0.00 0.00 0.00 0.00 0.00 0.00 0.00 0.01 0.01 0.01 0.02 0.02 0.02 0.02 0.03 0.03 0.02 0.02 0.02 0.02 0.03
0.05 0.03 0.02 0.01 0.01 0.00 0.00 0.00 0.00 0.00 0.00 0.02 0.05 0.05 0.07 0.07 0.12 0.12 0.08 0.04 0.04 0.02 0.07 0.12 0.12 0.08 0.02 0.01 0.01 0.01 0.00 0.00 0.00 0.00 0.05 0.03 0.01 0.01 0.00 0.00 0.00 0.00 0.01 0.00 0.00 0.00 0.00 0.00 0.00 0.00 0.00 0.00 0.00 0.00 0.00 0.00 0.00 0.00 0.00 0.00 0.00 0.00 0.00 0.00 0.00 0.00 0.00 0.00 0.00 0.00 0.00 0.00 0.01 0.01 0.01 0.01 0.02 0.02 0.02 0.01 0.01 0.02 0.02 0.04 0.04 0.03
0.01 0.00 0.00 0.00 0.00 0.00 0.00 0.00 0.00 0.00 0.00 0.01 0.04 0.04 0.10 0.12 0.17 0.17 0.07 0.02 0.02 0.07 0.17 0.13 0.13 0.06 0.05 0.02 0.01 0.01 0.00 0.00 0.00 0.00 0.00 0.02 0.10 0.10 0.02 0.00 0.00 0.00 0.01 0.01 0.01 0.00 0.00 0.00 0.00 0.00 0.00 0.00 0.00 0.00 0.00 0.00 0.00 0.00 0.00 0.00 0.00 0.00 0.00 0.00 0.00 0.00 0.00 0.00 0.00 0.00 0.00 0.00 0.00 0.00 0.01 0.01 0.03 0.03 0.02 0.02 0.02 0.05 0.04 0.10 0.10 0.07
0.00 0.00 0.00 0.00 0.00 0.00 0.00 0.00 0.00 0.00 0.00 0.01 0.02 0.02 0.04 0.10 0.14 0.14 0.04 0.01 0.01 0.16 0.15 0.11 0.11 0.11 0.08 0.04 0.01 0.01 0.00 0.00 0.00 0.00 0.00 0.04 0.03 0.03 0.01 0.01 0.01 0.01 0.02 0.02 0.02 0.00 0.00 0.00 0.00 0.00 0.00 0.00 0.00 0.00 0.00 0.00 0.00 0.00 0.00 0.00 0.00 0.00 0.00 0.00 0.00 0.00 0.00 0.00 0.00 0.00 0.01 0.01 0.01 0.01 0.04 0.04 0.07 0.07 0.08 0.07 0.07 0.10 0.12 0.11 0.11 0.12
0.00 0.00 0.00 0.00 0.00 0.00 0.00 0.00 0.00 0.00 0.00 0.01 0.02 0.02 0.04 0.03 0.08 0.08 0.05 0.03 0.03 0.19 0.20 0.11 0.11 0.12 0.04 0.05 0.01 0.01 0.00 0.00 0.00 0.00 0.01 0.09 0.03 0.03 0.01 0.01 0.01 0.01 0.03 0.06 0.06 0.01 0.00 0.00 0.00 0.00 0.00 0.00 0.00 0.00 0.00 0.00 0.00 0.00 0.00 0.00 0.00 0.00 0.00 0.00 0.00 0.00 0.00 0.01 0.01 0.01 0.04 0.04 0.04 0.04 0.05 0.06 0.07 0.07 0.07 0.07 0.07 0.11 0.13 0.12 0.12 0.12
0.00 0.00 0.00 0.00 0.00 0.00 0.00 0.00 0.00 0.00 0.00 0.01 0.02 0.02 0.02 0.01 0.02 0.02 0.03 0.06 0.06 0.23 0.18 0.11 0.11 0.06 0.07 0.15 0.07 0.07 0.02 0.00 0.00 0.00 0.00 0.11 0.15 0.15 0.01 0.03 0.03 0.03 0.01 0.14 0.14 0.23 0.00 0.00 0.00 0.00 0.00 0.00 0.00 0.00 0.00 0.00 0.00 0.00 0.00 0.00 0.00 0.00 0.00 0.00 0.00 0.00 0.00 0.02 0.03 0.03 0.03 0.04 0.05 0.05 0.05 0.06 0.06 0.06 0.05 0.06 0.06 0.08 0.11 0.11 0.11 0.10
0.00 0.00 0.00 0.00 0.00 0.00 0.00 0.00 0.00 0.00 0.00 0.00 0.00 0.00 0.00 0.00 0.01 0.01 0.03 0.09 0.09 0.17 0.18 0.11 0.11 0.09 0.06 0.19 0.15 0.15 0.01 0.00 0.00 0.00 0.04 0.34 0.07 0.07 0.03 0.10 0.10 0.06 0.01 0.02 0.02 0.24 0.26 0.03 0.03 0.00 0.00 0.00 0.00 0.00 0.00 0.00 0.00 0.00 0.00 0.00 0.00 0.00 0.00 0.01 0.01 0.01 0.01 0.02 0.02 0.02 0.03 0.03 0.03 0.03 0.03 0.04 0.05 0.05 0.06 0.07 0.07 0.15 0.17 0.14 0.14 0.10
0.00 0.00 0.00 0.00 0.00 0.00 0.00 0.00 0.00 0.00 0.00 0.00 0.00 0.00 0.00 0.00 0.01 0.01 0.02 0.04 0.04 0.10 0.21 0.17 0.17 0.13 0.13 0.09 0.07 0.07 0.02 0.00 0.00 0.00 0.01 0.24 0.35 0.35 0.08 0.07 0.07 0.10 0.02 0.03 0.03 0.08 0.17 0.02 0.02 0.01 0.00 0.00 0.00 0.00 0.00 0.00 0.00 0.00 0.00 0.00 0.00 0.00 0.00 0.00 0.00 0.01 0.01 0.01 0.01 0.01 0.01 0.01 0.02 0.02 0.02 0.03 0.04 0.04 0.05 0.07 0.07 0.09 0.18 0.21 0.21 0.16
0.00 0.00 0.00 0.00 0.00 0.00 0.00 0.00 0.00 0.00 0.00 0.00 0.00 0.00 0.00 0.00 0.00 0.00 0.01 0.03 0.03 0.05 0.15 0.20 0.20 0.23 0.26 0.16 0.07 0.07 0.03 0.00 0.00 0.00 0.04 0.42 0.24 0.24 0.13 0.07 0.07 0.05 0.05 0.08 0.08 0.04 0.03 0.04 0.04 0.02 0.01 0.00 0.00 0.00 0.00 0.00 0.00 0.00 0.00 0.00 0.00 0.00 0.00 0.01 0.01 0.01 0.01 0.01 0.01 0.01 0.01 0.01 0.02 0.02 0.02 0.02 0.04 0.04 0.05 0.07 0.07 0.09 0.18 0.22 0.22 0.21
0.01 0.01 0.01 0.00 0.00 0.00 0.00 0.00 0.00 0.00 0.00 0.00 0.00 0.00 0.00 0.00 0.00 0.00 0.01 0.03 0.03 0.03 0.15 0.21 0.21 0.24 0.30 0.26 0.11 0.11 0.05 0.00 0.00 0.00 0.08 0.44 0.20 0.20 0.22 0.05 0.05 0.05 0.12 0.07 0.07 0.10 0.08 0.04 0.04 0.03 0.02 0.01 0.00 0.00 0.00 0.00 0.00 0.00 0.00 0.01 0.01 0.01 0.01 0.03 0.03 0.02 0.02 0.03 0.02 0.02 0.02 0.02 0.02 0.02 0.05 0.04 0.04 0.04 0.06 0.07 0.07 0.08 0.12 0.18 0.18 0.26
0.01 0.01 0.01 0.00 0.00 0.00 0.01 0.00 0.00 0.00 0.00 0.00 0.00 0.00 0.00 0.00 0.00 0.00 0.00 0.01 0.01 0.01 0.02 0.05 0.05 0.12 0.13 0.40 0.30 0.30 0.04 0.01 0.02 0.02 0.17 0.40 0.31 0.31 0.28 0.05 0.05 0.10 0.13 0.10 0.10 0.11 0.09 0.03 0.03 0.01 0.02 0.02 0.02 0.02 0.01 0.00 0.00 0.00 0.00 0.00 0.00 0.02 0.02 0.04 0.04 0.05 0.04 0.05 0.04 0.04 0.04 0.04 0.05 0.05 0.05 0.08 0.07 0.07 0.11 0.11 0.11 0.11 0.15 0.19 0.19 0.23
0.01 0.01 0.01 0.00 0.00 0.00 0.01 0.01 0.00 0.00 0.01 0.01 0.00 0.00 0.00 0.00 0.00 0.00 0.00 0.00 0.00 0.01 0.01 0.02 0.02 0.05 0.05 0.15 0.40 0.40 0.10 0.05 0.02 0.02 0.03 0.08 0.41 0.41 0.33 0.12 0.12 0.05 0.19 0.24 0.24 0.15 0.10 0.14 0.14 0.04 0.02 0.02 0.01 0.01 0.01 0.00 0.00 0.00 0.01 0.01 0.01 0.03 0.03 0.04 0.04 0.05 0.05 0.06 0.05 0.05 0.04 0.06 0.07 0.07 0.09 0.13 0.13 0.13 0.17 0.16 0.16 0.16 0.15 0.17 0.17 0.13
0.02 0.01 0.01 0.01 0.01 0.01 0.01 0.01 0.01 0.01 0.01 0.01 0.01 0.01 0.01 0.00 0.00 0.00 0.00 0.00 0.00 0.01 0.01 0.02 0.02 0.03 0.03 0.06 0.10 0.10 0.05 0.03 0.02 0.02 0.03 0.10 0.38 0.38 0.30 0.13 0.13 0.03 0.12 0.20 0.20 0.16 0.17 0.14 0.14 0.09 0.02 0.01 0.00 0.00 0.00 0.00 0.00 0.01 0.01 0.03 0.03 0.05 0.03 0.04 0.04 0.06 0.06 0.07 0.05 0.05 0.05 0.08 0.10 0.10 0.10 0.14 0.16 0.16 0.19 0.17 0.17 0.17 0.17 0.15 0.15 0.11
0.02 0.03 0.02 0.01 0.01 0.00 0.01 0.01 0.01 0.01 0.01 0.00 0.00 0.00 0.00 0.00 0.00 0.00 0.00 0.00 0.00 0.01 0.01 0.02 0.02 0.03 0.02 0.03 0.04 0.04 0.03 0.04 0.03 0.03 0.04 0.07 0.26 0.26 0.28 0.13 0.13 0.06 0.07 0.17 0.17 0.21 0.24 0.20 0.20 0.15 0.15 0.07 0.04 0.04 0.00 0.00 0.00 0.01 0.02 0.02 0.02 0.04 0.05 0.04 0.04 0.06 0.09 0.10 0.09 0.09 0.07 0.07 0.10 0.10 0.12 0.15 0.19 0.19 0.20 0.16 0.16 0.16 0.21 0.15 0.15 0.11
0.03 0.02 0.01 0.01 0.01 0.01 0.00 0.01 0.01 0.01 0.00 0.00 0.00 0.00 0.00 0.00 0.01 0.01 0.01 0.00 0.00 0.00 0.00 0.01 0.01 0.01 0.02 0.02 0.02 0.02 0.02 0.03 0.03 0.03 0.04 0.04 0.05 0.05 0.16 0.25 0.25 0.12 0.07 0.10 0.10 0.13 0.25 0.20 0.20 0.10 0.08 0.10 0.05 0.05 0.01 0.01 0.01 0.02 0.03 0.04 0.04 0.04 0.03 0.04 0.04 0.06 0.09 0.13 0.10 0.10 0.08 0.08 0.12 0.12 0.12 0.23 0.24 0.24 0.31 0.26 0.26 0.18 0.17 0.29 0.29 0.21
0.02 0.02 0.01 0.01 0.01 0.00 0.00 0.00 0.01 0.01 0.00 0.00 0.01 0.01 0.00 0.01 0.01 0.01 0.02 0.00 0.00 0.01 0.00 0.00 0.00 0.01 0.02 0.03 0.03 0.03 0.02 0.02 0.02 0.02 0.03 0.03 0.05 0.05 0.14 0.15 0.15 0.15 0.13 0.13 0.13 0.11 0.18 0.17 0.17 0.08 0.05 0.06 0.06 0.06 0.03 0.01 0.01 0.05 0.08 0.11 0.11 0.04 0.03 0.03 0.03 0.05 0.05 0.11 0.13 0.13 0.16 0.14 0.11 0.11 0.14 0.25 0.31 0.31 0.31 0.37 0.37 0.23 0.24 0.30 0.30 0.28
0.02 0.01 0.01 0.01 0.01 0.00 0.00 0.00 0.00 0.00 0.00 0.01 0.01 0.01 0.01 0.01 0.03 0.03 0.02 0.02 0.02 0.02 0.01 0.01 0.01 0.02 0.02 0.03 0.03 0.03 0.02 0.01 0.01 0.01 0.02 0.04 0.06 0.06 0.12 0.15 0.15 0.16 0.18 0.13 0.13 0.06 0.09 0.13 0.13 0.07 0.07 0.06 0.08 0.08 0.08 0.03 0.03 0.06 0.08 0.10 0.10 0.08 0.03 0.02 0.02 0.04 0.08 0.11 0.15 0.15 0.21 0.16 0.14 0.14 0.15 0.20 0.32 0.32 0.39 0.43 0.43 0.30 0.33 0.33 0.33 0.28
0.01 0.01 0.01 0.00 0.00 0.00 0.00 0.00 0.00 0.00 0.00 0.01 0.01 0.01 0.01 0.02 0.04 0.04 0.04 0.02 0.02 0.02 0.01 0.01 0.01 0.03 0.02 0.03 0.02 0.02 0.02 0.01 0.01 0.01 0.02 0.04 0.05 0.05 0.08 0.09 0.09 0.13 0.20 0.20 0.20 0.12 0.04 0.04 0.04 0.06 0.04 0.04 0.09 0.09 0.08 0.05 0.05 0.09 0.10 0.11 0.11 0.20 0.07 0.03 0.03 0.05 0.11 0.14 0.16 0.16 0.17 0.18 0.16 0.16 0.16 0.19 0.22 0.22 0.29 0.32 0.32 0.41 0.40 0.37 0.37 0.33
0.02 0.01 0.01 0.00 0.00 0.00 0.00 0.00 0.00 0.00 0.01 0.01 0.01 0.01 0.00 0.00 0.01 0.01 0.04 0.05 0.05 0.02 0.01 0.01 0.01 0.01 0.03 0.03 0.02 0.02 0.01 0.01 0.01 0.01 0.02 0.08 0.10 0.10 0.09 0.05 0.05 0.08 0.20 0.25 0.25 0.14 0.06 0.04 0.04 0.02 0.02 0.05 0.09 0.09 0.07 0.08 0.08 0.10 0.10 0.13 0.13 0.36 0.36 0.17 0.17 0.13 0.11 0.11 0.13 0.13 0.17 0.20 0.18 0.18 0.17 0.20 0.24 0.24 0.26 0.23 0.23 0.29 0.34 0.40 0.40 0.38
0.02 0.01 0.01 0.00 0.00 0.00 0.01 0.01 0.00 0.00 0.01 0.01 0.01 0.01 0.00 0.01 0.02 0.02 0.04 0.05 0.05 0.03 0.02 0.02 0.02 0.02 0.06 0.04 0.02 0.02 0.01 0.01 0.01 0.01 0.02 0.04 0.09 0.09 0.08 0.04 0.04 0.04 0.10 0.25 0.25 0.15 0.11 0.05 0.05 0.02 0.02 0.03 0.09 0.09 0.11 0.09 0.09 0.12 0.10 0.10 0.10 0.18 0.26 0.18 0.18 0.16 0.15 0.13 0.15 0.15 0.16 0.20 0.20 0.20 0.17 0.19 0.23 0.23 0.25 0.27 0.27 0.22 0.22 0.32 0.32 0.45
0.02 0.01 0.01 0.01 0.01 0.01 0.01 0.01 0.01 0.01 0.01 0.00 0.00 0.00 0.00 0.01 0.02 0.02 0.05 0.06 0.06 0.03 0.01 0.03 0.03 0.06 0.05 0.03 0.02 0.02 0.02 0.01 0.01 0.01 0.01 0.02 0.03 0.03 0.03 0.02 0.02 0.03 0.04 0.05 0.05 0.03 0.10 0.12 0.12 0.04 0.04 0.05 0.06 0.06 0.11 0.13 0.13 0.14 0.08 0.09 0.09 0.11 0.14 0.16 0.16 0.20 0.17 0.15 0.17 0.17 0.17 0.20 0.24 0.24 0.29 0.26 0.19 0.19 0.24 0.26 0.26 0.24 0.22 0.31 0.31 0.41
0.02 0.02 0.01 0.01 0.01 0.01 0.01 0.01 0.01 0.01 0.01 0.00 0.00 0.00 0.00 0.01 0.01 0.01 0.03 0.02 0.02 0.03 0.03 0.01 0.01 0.03 0.05 0.03 0.03 0.03 0.05 0.06 0.02 0.02 0.02 0.02 0.02 0.02 0.02 0.02 0.02 0.02 0.03 0.03 0.03 0.02 0.03 0.04 0.04 0.03 0.08 0.07 0.05 0.05 0.08 0.14 0.14 0.14 0.09 0.09 0.09 0.09 0.11 0.11 0.11 0.12 0.18 0.21 0.23 0.23 0.14 0.14 0.22 0.22 0.29 0.21 0.20 0.20 0.22 0.23 0.23 0.27 0.28 0.34 0.34 0.28
0.04 0.03 0.02 0.03 0.03 0.02 0.01 0.01 0.02 0.02 0.02 0.00 0.00 0.00 0.00 0.01 0.02 0.02 0.04 0.01 0.01 0.02 0.04 0.02 0.02 0.03 0.04 0.02 0.03 0.03 0.06 0.06 0.04 0.04 0.02 0.02 0.02 0.02 0.02 0.02 0.02 0.02 0.02 0.02 0.02 0.02 0.02 0.02 0.02 0.02 0.02 0.06 0.08 0.08 0.05 0.06 0.06 0.14 0.14 0.10 0.10 0.12 0.10 0.10 0.10 0.12 0.16 0.25 0.25 0.25 0.22 0.19 0.26 0.26 0.21 0.25 0.20 0.20 0.18 0.19 0.19 0.20 0.29 0.32 0.32 0.26
0.02 0.04 0.03 0.04 0.04 0.04 0.02 0.02 0.02 0.02 0.02 0.01 0.01 0.01 0.01 0.00 0.03 0.03 0.03 0.02 0.02 0.02 0.05 0.04 0.04 0.04 0.04 0.02 0.02 0.02 0.10 0.04 0.01 0.01 0.02 0.02 0.03 0.03 0.03 0.03 0.03 0.02 0.02 0.02 0.02 0.01 0.01 0.02 0.02 0.01 0.02 0.06 0.08 0.08 0.06 0.08 0.08 0.13 0.15 0.12 0.12 0.13 0.11 0.10 0.10 0.12 0.15 0.15 0.15 0.15 0.25 0.36 0.46 0.46 0.41 0.25 0.23 0.23 0.17 0.19 0.19 0.21 0.29 0.32 0.32 0.27
0.01 0.02 0.03 0.04 0.04 0.04 0.03 0.02 0.02 0.02 0.04 0.03 0.01 0.01 0.01 0.00 0.01 0.01 0.03 0.02 0.02 0.03 0.04 0.05 0.05 0.06 0.06 0.04 0.02 0.02 0.04 0.03 0.02 0.02 0.01 0.02 0.02 0.02 0.03 0.03 0.03 0.03 0.02 0.02 0.02 0.01 0.01 0.02 0.02 0.01 0.02 0.06 0.13 0.13 0.09 0.09 0.09 0.09 0.09 0.14 0.14 0.13 0.16 0.12 0.12 0.11 0.13 0.13 0.13 0.13 0.15 0.33 0.25 0.25 0.40 0.34 0.26 0.26 0.20 0.24 0.24 0.22 0.22 0.31 0.31 0.34
0.01 0.01 0.03 0.05 0.05 0.04 0.03 0.03 0.03 0.03 0.05 0.02 0.02 0.02 0.04 0.01 0.01 0.01 0.00 0.01 0.01 0.02 0.01 0.03 0.03 0.06 0.09 0.05 0.03 0.03 0.05 0.04 0.04 0.04 0.03 0.02 0.03 0.03 0.03 0.04 0.04 0.04 0.02 0.01 0.01 0.01 0.01 0.02 0.02 0.02 0.02 0.02 0.09 0.09 0.19 0.15 0.15 0.11 0.08 0.09 0.09 0.09 0.15 0.13 0.13 0.12 0.16 0.15 0.14 0.14 0.13 0.15 0.13 0.13 0.20 0.33 0.26 0.26 0.25 0.29 0.29 0.22 0.22 0.33 0.33 0.32